www.pogodaiklimat.ru

Погода и климат >> Архив погоды >> Турция >> Edirne


ПОГОДА в Edirne

  • Прогноз погоды в Edirne
  • Монитор погоды в Edirne
  • Климат города

АРХИВ ПОГОДЫ в Edirne

Время (UTC), дата Ветер
(напр.,м/с)
 
Видим.   Явления Облачность Т
(С)
Тd
(С)
f
(%)
Тe
(С)
Тes
(С)
Комфортность P
(гПа)
Po
(гПа)
Тmin
(С)
Tmax
(С)
R
(мм)
R24
(мм)
S
(см)
07 11.08 СЗ 2 20 км ясно +31.1 +21.0 55 +39 +49 очень
душно
1012.3 1006.5
08 11.08 С 3 20 км ясно +32.6 +18.0 42 +37 +49 очень
душно
1011.9 1006.1
09 11.08 С 1
{5}
20 км ясно +34.1 +14.0 30 +35 +54 опасность
солнечного
удара
1011.6 1005.8
11 11.08 СЗ 2 20 км ясно +36.6 +6.0 15 +34 +51 опасность
солнечного
удара
1010.8 1005.0
10 11.08 С 2 20 км ясно +36.1 +11.0 22 +35 +54 опасность
солнечного
удара
1011.2 1005.4
12 11.08 З 2
{5}
20 км ясно +37.6 +1.0 10 +34 +50 очень
жарко
1010.4 1004.6
13 11.08 Ю 3 20 км ясно +38.1 +2.0 11 +35 +45 очень
жарко
1009.8 1004.0
14 11.08 В 2 20 км 1/1 1000 м
[Cu hum]
+39.4 -4.0 6 +35 +42 очень
жарко
1009.6 1003.9
15 11.08 В 3
{6}
20 км 1/1 1200 м
[Cu hum]
+38.1 0.0 9 +34 +37 очень
жарко
1009.6 1003.8
17 11.08 В 3 20 км 1/1 1000 м
[Cu hum]
+33.6 +7.0 19 +32 +32 жарко 1010.3 1004.5
16 11.08 В 3 20 км 1/1 1000 м
[Cu hum]
+36.5 +3.0 12 +33 +34 жарко 1009.7 1003.9
18 11.08 В 3
{6}
20 км ясно +31.7 +8.0 23 +31 +31 жарко 1011.0 1005.2 +39.4
06 12.08 СЗ 1
{3}
20 км ясно +26.9 +16.0 51 +30 +36 душно 1010.6 1004.8 +19.9
07 12.08 СЗ 1 20 км ясно +29.7 +12.0 34 +31 +41 жарко 1010.4 1004.6
08 12.08 З 1 20 км ясно +32.7 +10.0 25 +32 +47 жарко 1010.1 1004.3
09 12.08 Ю 2
{3}
20 км ясно +34.7 -4.0 8 +31 +48 жарко 1009.8 1004.0
11 12.08 ЮЗ 2 20 км ясно +36.2 -7.0 6 +32 +48 жарко 1008.6 1002.8
10 12.08 Ю 2 20 км ясно +36.1 -7.0 6 +32 +50 жарко 1009.1 1003.4
12 12.08 ЮЗ 2
{4}
20 км ясно +37.7 -10.0 4 +33 +49 жарко 1007.8 1002.1
13 12.08 Ю 3 20 км ясно +37.9 -10.0 4 +33 +43 жарко 1007.1 1001.3
14 12.08 ЮВ 3 20 км ясно +37.7 -10.0 4 +33 +39 жарко 1006.4 1000.6
15 12.08 ЮВ 3
{5}
20 км ясно +37.7 -13.0 3 +33 +36 жарко 1006.0 1000.2
17 12.08 В 3 20 км ясно +33.0 -19.0 3 +28 +28 жарко 1006.0 1000.2
16 12.08 В 4 20 км ясно +35.4 -17.0 3 +31 +31 жарко 1005.8 1000.0
18 12.08 ЮВ 2
{7}
20 км ясно +30.9 -15.0 4 +26 +26 жарко 1005.8 1000.0 +38.6
06 13.08 С 1
{3}
20 км ясно +25.0 +4.0 26 +24 +30 комфорт 1005.1 999.3 +18.1
07 13.08 Ю 1 20 км ясно +28.2 +5.0 23 +27 +38 жарко 1005.2 999.4
08 13.08 С 3 20 км ясно +31.9 +4.0 17 +29 +41 жарко 1005.0 999.2
09 13.08 С 3
{6}
20 км ясно +33.8 0.0 12 +30 +45 жарко 1004.3 998.6
11 13.08 С 3 20 км ясно +36.2 -16.0 3 +31 +47 жарко 1004.1 998.3
10 13.08 СВ 2 20 км ясно +35.0 -14.0 4 +30 +47 жарко 1004.0 998.3
12 13.08 З 2
{6}
20 км 3/3 1200 м
[Cu med, cong]
+36.6 +0.2 10 +32 +42 жарко 1003.8 998.0
13 13.08 СЗ 2 20 км 4/4 1000 м
[Cu med, cong]
+36.2 -20.0 2 +31 +38 жарко 1003.8 998.0
14 13.08 З 4 20 км 5/5 1000 м
[Cu med, cong]
+32.4 +6.0 19 +30 +33 жарко 1004.0 998.2
15 13.08 СЗ 5
{9}
20 км 5/5 1200 м
[Cu med, cong]
+33.1 +4.0 16 +30 +31 жарко 1004.1 998.3
17 13.08 СЗ 6 20 км 5/5 1000 м
[Cu med, cong]
+25.4 +10.0 38 +26 +26 жарко 1006.8 1000.9
16 13.08 СЗ 5 20 км 5/5 1000 м
[Cu med, cong]
+30.1 +5.0 20 +28 +28 жарко 1005.1 999.2
18 13.08 З 5
{11}
20 км 6/6 1050 м
[Cu med, cong]
+23.6 +11.0 45 +25 +25 комфорт 1008.3 1002.4 +37.2
06 14.08 СЗ 2
{9}
20 км {ливн. осадки} 8/5 1050 м
[Cu med, cong Ac As]
+20.9 +14.0 65 +25 +26 комфорт 1012.9 1007.0 +19.5
07 14.08 З 2 20 км 5/4 1000 м
[Cu med, cong Ac trans]
+23.4 +13.0 52 +26 +32 жарко 1013.0 1007.1
08 14.08 С 1 20 км 4/0
[Ac trans]
+28.0 +10.0 32 +28 +40 жарко 1013.1 1007.2
09 14.08 ЮЗ 2
{5}
20 км 4/0
[Ac trans]
+29.1 +10.0 30 +29 +41 жарко 1013.0 1007.1
11 14.08 СЗ 2 20 км 8/5 1000 м
[Cu med, cong Ac As]
+31.1 +7.0 22 +30 +35 жарко 1012.7 1006.8
10 14.08 Ю 1 20 км 3/3 1000 м
[Cu med, cong]
+30.8 +9.0 26 +30 +44 жарко 1012.8 1006.9
12 14.08 СЗ 2
{6}
20 км 8/5 1050 м
[Cu med, cong Ac As]
+31.6 +5.0 19 +30 +34 жарко 1012.6 1006.7
13 14.08 С 3 20 км 5/4 1000 м
[Cu med, cong Ac trans]
+32.8 +4.0 16 +30 +35 жарко 1012.0 1006.1
14 14.08 С 4 20 км 6/4 1000 м
[Cu med, cong Ac As]
+30.5 +7.0 23 +29 +32 жарко 1012.2 1006.3
15 14.08 С 4
{7}
20 км 4/4 1050 м
[Cu med, cong]
+32.2 +6.0 19 +30 +32 жарко 1012.4 1006.5
17 14.08 С 2 20 км 3/0
[Ac trans]
+28.6 +7.0 26 +28 +28 жарко 1013.6 1007.7
16 14.08 С 3 20 км 4/4 1000 м
[Cu med, cong]
+30.9 +6.0 21 +29 +30 жарко 1012.9 1007.0
18 14.08 С 2
{7}
20 км 4/3 1050 м
[Cu med, cong Ac trans]
+27.3 +7.0 28 +27 +27 жарко 1014.5 1008.6 +34.0
06 15.08 З 2
{5}
20 км ясно +25.5 +12.0 43 +27 +32 жарко 1015.6 1009.7 +19.5
07 15.08 С 3 20 км 4/0
[Ac trans]
+28.5 +11.0 34 +29 +35 жарко 1015.6 1009.7
08 15.08 С 3 20 км 6/4 1000 м
[Cu med, cong Ac As]
+29.4 +8.0 26 +29 +33 жарко 1015.4 1009.5
09 15.08 С 4
{8}
20 км 6/4 1050 м
[Cu med, cong Ac As]
+29.6 +8.0 26 +29 +34 жарко 1015.1 1009.2
11 15.08 С 4 20 км 4/4 1000 м
[Cu med, cong]
+32.5 +4.0 17 +30 +37 жарко 1014.0 1008.2
10 15.08 С 4 20 км 5/4 1000 м
[Cu med, cong Ac lent]
+31.1 +7.0 22 +30 +36 жарко 1014.6 1008.7
12 15.08 С 3
{8}
20 км 4/4 1200 м
[Cu med, cong]
+33.7 +4.0 16 +31 +38 жарко 1013.0 1007.2
13 15.08 С 3 20 км 5/5 1000 м
[Cu med, cong]
+33.3 +4.0 16 +31 +35 жарко 1012.6 1006.8
14 15.08 С 3 20 км 5/5 1000 м
[Cu med, cong]
+32.1 +4.0 17 +30 +32 жарко 1012.7 1006.8
15 15.08 С 4
{8}
20 км 4/4 1200 м
[Cu med, cong]
+32.3 +4.0 17 +30 +31 жарко 1012.6 1006.7
17 15.08 С 4 20 км 4/4 1000 м
[Cu med, cong]
+29.4 +7.0 24 +28 +28 жарко 1013.1 1007.2
16 15.08 С 4 20 км 4/4 1000 м
[Cu med, cong]
+30.9 +6.0 21 +29 +30 жарко 1013.0 1007.1
18 15.08 С 2
{9}
20 км ясно +27.5 +9.0 31 +28 +28 жарко 1013.6 1007.7 +36.4
06 16.08 С 3
{6}
20 км ясно +25.7 +12.0 42 +27 +31 жарко 1012.5 1006.7 +21.6
07 16.08 С 4 20 км ясно +27.2 +9.0 32 +27 +33 жарко 1012.8 1007.0
08 16.08 С 4 20 км ясно +29.1 +9.0 28 +29 +37 жарко 1012.4 1006.6
09 16.08 С 4
{9}
20 км 4/3 1050 м
[Cu med, cong Ac trans]
+30.6 +7.0 23 +29 +36 жарко 1012.2 1006.4
11 16.08 С 4 20 км 6/4 1000 м
[Cu med, cong Ac As]
+30.5 +8.0 25 +30 +35 жарко 1011.9 1006.1
10 16.08 С 5 20 км 6/4 1000 м
[Cu med, cong Ac As]
+29.8 +7.0 24 +29 +33 жарко 1011.6 1005.8
12 16.08 С 4
{12}
20 км 6/4 1050 м
[Cu med, cong Ac As]
+31.3 +7.0 22 +30 +35 жарко 1011.5 1005.7
13 16.08 С 4 20 км 8/5 1000 м
[Cu med, cong Ac As]
+31.5 +5.0 19 +29 +32 жарко 1011.2 1005.4
14 16.08 С 4 20 км 8/5 1000 м
[Cu med, cong Ac As]
+32.7 +2.0 14 +30 +31 жарко 1010.9 1005.1
15 16.08 С 5
{9}
20 км 8/5 1050 м
[Cu med, cong Ac As]
+31.0 +4.0 18 +29 +29 жарко 1011.0 1005.2
17 16.08 СВ 2 20 км 4/0
[Ac trans]
+28.1 +8.0 28 +28 +28 жарко 1011.3 1005.4
16 16.08 С 3 20 км 5/4 1000 м
[Cu med, cong Ac trans]
+29.4 +7.0 24 +28 +29 жарко 1011.2 1005.3
18 16.08 С 2
{9}
20 км 3/0
[Ac trans]
+26.8 +11.0 37 +28 +28 жарко 1011.9 1006.0 +32.8
06 17.08 С 2
{4}
20 км ясно +26.3 +5.0 25 +25 +30 комфорт 1012.2 1006.4 +20.2
07 17.08 С 3 20 км ясно +29.0 +3.0 19 +27 +34 жарко 1012.1 1006.3
08 17.08 С 3 20 км 4/4 1000 м
[Cu med, cong]
+31.4 0.0 13 +28 +34 жарко 1011.8 1006.0
09 17.08 С 4
{7}
20 км 5/5 1200 м
[Cu med, cong]
+32.5 -6.0 8 +28 +34 жарко 1011.4 1005.6
11 17.08 С 3 20 км 6/5 1000 м
[Cu med, cong Ac trans]
+34.8 -17.0 3 +30 +36 жарко 1011.1 1005.3
10 17.08 СВ 3 20 км 5/5 1000 м
[Cu med, cong]
+33.9 -13.0 4 +29 +36 жарко 1011.3 1005.5
12 17.08 С 3
{8}
20 км 6/4 1050 м
[Cu med, cong Ac As]
+35.1 -9.2 5 +30 +36 жарко 1010.8 1005.0
13 17.08 С 3 20 км 4/4 1000 м
[Cu med, cong Ac trans]
+35.2 -17.0 3 +30 +36 жарко 1010.5 1004.7
14 17.08 С 3 20 км 4/4 1000 м
[Cu med, cong]
+35.6 -14.0 4 +31 +34 жарко 1010.4 1004.6
15 17.08 СВ 3
{8}
20 км 4/4 1200 м
[Cu med, cong]
+35.2 -9.0 5 +31 +32 жарко 1010.6 1004.8
17 17.08 В 2 20 км 4/4 1000 м
[Cu med, cong]
+31.0 -10.0 6 +27 +27 жарко 1011.5 1005.7
16 17.08 С 2 20 км 4/4 1000 м
[Cu med, cong]
+32.8 -6.0 8 +29 +29 жарко 1011.0 1005.2
18 17.08 С 1
{8}
20 км 4/4 1200 м
[Cu med, cong]
+29.1 -10.0 7 +25 +25 комфорт 1012.2 1006.4 +35.8
06 18.08 СЗ 1
{4}
20 км ясно +24.6 +6.0 30 +24 +30 комфорт 1014.4 1008.5 +19.0

 

Местоположение метеостанции Edirne (Турция): широта 41.67 долгота 26.57 высота над уровнем моря 51 м.

В архиве по умолчанию представлена погода в Edirne за последнюю неделю. Архивные данные за месяц целиком и за предыдущие месяцы, начиная с января 2011 года, Вы можете получить, выбрав интересующий диапазон дат из раскрывающегося списка и нажав кнопку "Ввод!".

Внимание! Время в таблицах - всемирное. Для получения местного времени необходимо прибавить поправку, которая в Edirne равна 2 ч.

Смотрите также архив погоды в соседних городах и на ближайших метеорологических станциях:

Погода в Kirklareli (Турция) (54 км)
Погода в Kurdjali (Болгария) (100 км)
Погода в Alexandroupoli (Греция) (106 км)
Погода в Tekirdag (Турция) (112 км)
Погода в Sliven (Болгария) (113 км)
Погода в Burgas (Болгария) (117 км)
Погода в Canakkale (Турция) (172 км)
Погода в Gokceada (Турция) (175 км)
Погода в Chrysopouli (Греция) (182 км)
Погода в Bandirma (Турция) (191 км)

Пояснения к столбцам:

Ветер - указаны скорость ветра в м/с - средняя за 10 мин, порывы в срок и между сроками (в фигурных скобках) и направление, откуда дует ветер: С - северный, СВ - северо-восточный, В - восточный, ЮВ - юго-восточный, Ю - южный, ЮЗ - юго-западный, З - западный, СЗ - северо-западный.
Видимость - горизонтальная дальность видимости в метрах или километрах. При видимости от 1 до 10 км при отсутствии осадков обычно наблюдается дымка, при ухудшении видимости до 1 км и менее - туман. В сухую погоду видимость может ухудшаться дымом, пылью или мглою.
Явления - указаны атмосферные явления, наблюдавшиеся в срок или в последний час перед сроком; фигурными скобками обозначены явления, наблюдавшиеся между сроками (за 1-3 часа до срока); квадратными скобками обозначены град или гололедные отложения с указанием их диаметра в мм.
Облачность - указаны через наклонную черту общая и нижняя облачность в баллах и высота нижней границы облаков в метрах; квадратными скобками обозначены формы облаков: Ci - перистые, Cs - перисто-слоистые, Cc - перисто-кучевые, Ac - высококучевые, As - высокослоистые, Sc - слоисто-кучевые, Ns - слоисто-дождевые, Cu - кучевые, Cb - кучево-дождевые. Подробнее классификацию облаков см. в Атласе облаков (PDF).
T - Температура воздуха - температура, измеренная на высоте 2 м над землей.
Td - Температура точки росы - температура, при понижении до которой содержащийся в воздухе водяной пар достигнет насыщения.
f - Относительная влажность воздуха - влажноcть воздуха, измеренная на высоте 2 м над землей.
Te - Эффективная температура - температура, которую ощущает одетый по сезону человек в тени. Характеристика душности погоды. При расчете учитывается влияние влажности воздуха и скорости ветра на теплоощущения человека.
Tes - Эффективная температура на солнце - температура, которую ощущает человек, с поправкой на солнечный нагрев. Характеристика знойности погоды. Зависит от высоты солнца над горизонтом, облачности и скорости ветра. Ночью, в пасмурную погоду, а также при ветре 12 м/с и более поправка равна нулю.
P - Атмосферное давление - приведенное к уровню моря атмосферное давление.
Po - Атмосферное давление - измеренное на уровне метеостанции атмосферное давление.
Tmin - Минимальная температура - минимум температуры воздуха на высоте 2 м над землей.
Tmax - Максимальная температура - максимум температуры воздуха на высоте 2 м над землей.
R - Количество осадков - Количество выпавших осадков за период времени, мм. При наведении курсора мыши на число - период времени, за который выпало указанное количество осадков.
R24 - Количество осадков - Количество выпавших осадков за 24 часа, мм.
S - Снежный покров - Высота снежного покрова, см. При наведении курсора мыши на число - состояние снежного покрова и степень покрытия местности в баллах.